sat.trackr.live / text

‹ back to catalog

STARLINK-5824

NORAD 57067 · 2023-088V

PAYLOAD ACTIVE UNKNOWN

§ Identity

Operator
Country
US
Launch date
2023-06-22
Launch site
AFWTR
Launch vehicle
Mass (kg)
RCS (m²)

Purposes: comms

External: N2YO · Heavens-Above · Gunter

§ Orbital elements

Epoch: 2026-09-19T21:39:36.698112Z

Period
94.27 min
Inclination
43.0007°
Eccentricity
0.0000693
Mean motion
15.27573561 rev/d
Perigee alt
482.6 km
Apogee alt
483.5 km
Semi-major
6,861.2 km
B*
-4.4240e-6
RAAN
93.9250°
Arg perigee
257.2458°
Mean anomaly
102.8316°
Rev number
18,003

§ Raw data

STARLINK-58241 57067U 23088V   26262.90250808 -.00000383  00000+0 -44240-5 0  99902 57067  43.0007  93.9250 0000693 257.2458 102.8316 15.27573561180035

JSON: /api/v1/satellites/57067 · /tle

For live sub-satellite position, see the globe view (requires WebGL).

§ Visibility from observer

Set your observer location to see the next 7 days of passes ≥ 10°. The values pass through the URL so the page stays shareable.

No JS? Fill the form by hand. The geolocation button needs JavaScript.